Location: Unspecified
(0.0000°N, 0.0000°E)
Time: 11:18:27
(UTC+00:00)

Courier 1B - Pass Details

Date: 26 November 2019
Orbit: 963 x 1209 km, 28.3° (Epoch: 14 December)

Event Time Altitude Azimuth Distance (km) Brightness Sun altitude
Rises 07:31:53 0° 331° (NNW) 3,780 10.1 24.3°
Reaches altitude 10° 07:38:21 10° 15° (NNE) 2,754 9.9 25.8°
Maximum altitude 07:38:48 10° 19° (NNE) 2,744 9.9 25.9°
Drops below altitude 10° 07:39:15 10° 23° (NNE) 2,745 9.9 26.0°
Sets 07:45:30 0° 68° (ENE) 3,647 11.1 27.5°
